Zurück zum Katalog

NOAA 16 DEB

AktivPO
NORAD 41072·DEBRIS·🇺🇸 United States

Gestartet Sep 21, 2000 von Vandenberg Space Force Base

Loading…

Nächste Überflüge (nächste 24 Stunden)

TLE

AktuellSource: Space-Track

Epoche: Sep 14, 2026, 02:49 UTC

1 41072U 00055AF  26257.11740652  .00000292  00000-0  37375-3 0  9993
2 41072  98.8269 314.8418 0283153 248.3279 108.7490 13.54831526533439

Verfolge NOAA 16 DEB in Echtzeit mit AllMySat

Download on the App Store